Overview Statistics Trail Chart Weather Telemetry Raw packets
 

This is the latest recevied weather packets stored in our database for station/object KV9E. If no packets are shown the sender has not sent any weather packets the latest 10 day(s).

<< 78 79 80 81 82 83 84 >>
Time Temp. Humidity Pressure Rain* Wind** Luminosity Snow
1788046827 26.11° C 74% 1018.8 hPa 0 mm - 25 W/m² -
1788046526 26.11° C 74% 1018.9 hPa 0 mm - 30 W/m² -
1788046222 26.11° C 73% 1018.5 hPa 0 mm - 31 W/m² -
1788045919 26.67° C 72% 1018.8 hPa 0 mm - 33 W/m² -
1788045615 26.67° C 73% 1018.5 hPa 0 mm - 33 W/m² -
1788045309 26.67° C 71% 1018.9 hPa 0 mm - 38 W/m² -
1788045005 27.22° C 70% 1018.5 hPa 0 mm - 43 W/m² -
1788044704 27.78° C 68% 1018.6 hPa 0 mm - 53 W/m² -
1788044399 27.78° C 68% 1018.5 hPa 0 mm - 55 W/m² -
1788044094 28.33° C 67% 1018.5 hPa 0 mm - 54 W/m² -
1788043790 28.89° C 67% 1018.5 hPa 0 mm - 93 W/m² -
1788043490 29.44° C 64% 1018.6 hPa 0 mm - 111 W/m² -
1788043184 29.44° C 63% 1018.5 hPa 0 mm - 119 W/m² -
1788042879 30° C 63% 1018.5 hPa 0 mm - 133 W/m² -
1788042579 30° C 63% 1018.5 hPa 0 mm - 151 W/m² -
1788042278 30.56° C 61% 1018.5 hPa 0 mm - 160 W/m² -
1788041974 31.11° C 59% 1018.4 hPa 0 mm - 148 W/m² -
1788041670 31.11° C 58% 1018.6 hPa 0 mm - 204 W/m² -
1788041365 31.11° C 57% 1018.5 hPa 0 mm - 246 W/m² -
1788041063 31.11° C 56% 1018.5 hPa 0 mm - 244 W/m² -
1788040762 30.56° C 57% 1018.9 hPa 0 mm - 277 W/m² -
1788040451 31.67° C 56% 1018.6 hPa 0 mm - 266 W/m² -
1788040147 31.11° C 56% 1018.8 hPa 0 mm - 313 W/m² -
1788039841 31.11° C 56% 1018.6 hPa 0 mm - 332 W/m² -
1788039541 31.11° C 57% 1018.9 hPa 0 mm - 285 W/m² -

* Rain latest hour (hover to see other rain measurements)
** Current wind speed in m/s (hover to see current wind gust speed)